Home   Weather   Salta   Past weeks

Flag for Argentina Past Weather in Salta, Salta, Argentina — Yesterday and Last 2 Weeks

Now
81 °F

Broken clouds.


Feels Like: 82 °F
Forecast: 64 / 80 °F
Wind: 2 mph from North

Location: Salta Aerodrome

Current Time: Jan 16, 2017 at 2:47:54 pm

Latest Report: Jan 16, 2017 at 2:00 pm


Visibility: N/A

Pressure: 29.95 "Hg (26.17 "Hg at 1184m altitude)

Humidity: 58%

Dew Point: 64 °F

Location of SaltaLocation

Past Weather in Salta — Graph

°F

Salta Temperature Yesterday

Maximum temperature yesterday: 90 °F (at 4:00 pm)
Minimum temperature yesterday: 64 °F (at 7:00 am)
Average temperature yesterday: 75 °F

High & Low Weather Summary for the Past Weeks

 TemperatureHumidityPressure
High93 °F (Jan 1, 4:00 pm)100% (Jan 2, 2:00 am)30.18 "Hg (Jan 2, 2:00 am)
Low61 °F (Jan 12, 6:00 am)35% (Jan 2, 5:00 pm)29.65 "Hg (Jan 9, 5:00 pm)
Average74 °F75%29.92 "Hg
* Reported Jan 1 1:00 pm — Jan 16 1:00 pm, Salta, Weather by CustomWeather, © 2017

Note: Actual official high and low records may vary slightly from our data, if they occured in-between our weather recording intervals... More about our weather records

Advertising

Salta Weather History for the Previous 24 Hours

Scroll right to see more
 ConditionsComfort  
Time TempWeatherWind HumidityBarometerVisibility
1:00 pm
Mon, Jan 16
81 °FBroken clouds.6 mph58%29.98 "HgN/A
12:00 pm79 °FBroken clouds.5 mph61%30.01 "HgN/A
11:00 am75 °FScattered clouds.3 mph69%30.01 "HgN/A
10:00 am72 °FScattered clouds.2 mph83%30.01 "HgN/A
9:00 am68 °FBroken clouds.2 mph88%30.01 "HgN/A
8:00 am66 °FBroken clouds.2 mph94%29.98 "HgN/A
7:00 am64 °FBroken clouds.2 mph100%29.98 "HgN/A
6:00 am64 °FPassing clouds.2 mph100%29.95 "HgN/A
5:00 am64 °FPassing clouds.2 mph100%29.95 "HgN/A
4:00 am64 °FLight rain. Mostly cloudy.6 mph94%29.95 "Hg5 mi
3:00 am64 °FLight rain. Mostly cloudy.5 mph94%29.98 "Hg5 mi
2:00 am66 °FLight rain. Overcast.2 mph94%30.01 "Hg5 mi
1:00 am66 °FLight rain. Overcast.2 mph94%30.04 "Hg5 mi
12:00 am68 °FPassing clouds.7 mph88%30.04 "HgN/A
11:00 pm
Sun, Jan 15
68 °FMostly cloudy.13 mph88%30.01 "HgN/A
10:00 pm70 °FMostly cloudy.17 mph88%29.95 "HgN/A
9:00 pm75 °FLight rain. Partly cloudy.8 mph74%29.89 "Hg5 mi
8:00 pm75 °FMore clouds than sun.5 mph83%29.86 "HgN/A
7:00 pm75 °FMore clouds than sun.3 mph78%29.83 "HgN/A
6:10 pm75 °FMore clouds than sun.7 mph78%29.80 "HgN/A
6:00 pm75 °FThunderstorms. More clouds than sun.18 mph78%29.80 "HgN/A
5:00 pm86 °FThunderstorms. More clouds than sun.12 mph49%29.74 "HgN/A
4:15 pm90 °FThunderstorms. Scattered clouds.17 mph49%29.77 "HgN/A
4:00 pm90 °FScattered clouds.12 mph49%29.77 "HgN/A
3:00 pm88 °FScattered clouds.5 mph49%29.77 "HgN/A
2:00 pm86 °FScattered clouds.No wind52%29.77 "HgN/A
Weather by CustomWeather, © 2017

See weather overviewHow to use our weather pages